Dover, DE

6:31 AM EST on February 10, 2016 (GMT -0500)
Dover Air Force Base

Weather History for KDOV - November, 2012

Change the Weather History Date:

Tuesday, November 6, 2012

  Actual Average Record
Temperature  
Mean Temperature 38 °F -  
Max Temperature 47 °F 58 °F 80 °F (1948)
Min Temperature 29 °F 39 °F 23 °F (1991)
Degree Days  
Heating Degree Days 27    
Moisture  
Dew Point 29 °F    
Average Humidity 65    
Maximum Humidity 79    
Minimum Humidity 55    
Precipitation  
Precipitation 0.00 in - - ()
Sea Level Pressure  
Sea Level Pressure 30.12 in    
Wind  
Wind Speed 10 mph (NNE)    
Max Wind Speed 13 mph    
Max Gust Speed -    
Visibility 10 miles    
Events      
Averages and records for this station are not official NWS values.
T = Trace of Precipitation, MM = Missing Value Source: NWS Daily Summary

Daily Weather History Graph

Daily Weather History Graph

Search for Another Location

Airport or City:

Trip Planner

Search our weather history database for the weather conditions in past years. The results will help you decide how hot, cold, wet, or windy it might be!

Date:

Astronomy

Nov. 06, 2012 Rise Set
Actual Time 6:35 AM EST 4:55 PM EST
Civil Twilight 6:07 AM EST 5:23 PM EST
Nautical Twilight 5:35 AM EST 5:54 PM EST
Astronomical Twilight 5:04 AM EST 6:26 PM EST
Moon 11:31 PM EST (11/6) 12:26 PM EST (11/6)
Length of Visible Light 11h 15m
Length of Day
10h 19m
Waning Gibbous, 53% of the Moon is Illuminated
Nov 6
Waning Gibbous
Nov 6
Last Quarter
Nov 13
New
Nov 20
First Quarter
Nov 28
Full

Hourly Weather History & Observations

Time (EST) Temp. Windchill Dew Point Humidity Pressure Visibility Wind Dir Wind Speed Gust Speed Precip Events Conditions
12:55 AM 29.8 °F 23.0 °F 24.1 °F 79% 30.17 in 10.0 mi Variable 6.9 mph - N/A   Clear
1:55 AM 32.7 °F 25.0 °F 24.4 °F 72% 30.18 in 10.0 mi North 9.2 mph - N/A   Clear
2:55 AM 32.5 °F 25.5 °F 23.9 °F 70% 30.18 in 10.0 mi North 8.1 mph - N/A   Clear
3:55 AM 32.5 °F 24.2 °F 24.3 °F 72% 30.17 in 10.0 mi NNE 10.4 mph - N/A   Clear
4:55 AM 32.9 °F 23.7 °F 23.5 °F 68% 30.17 in 10.0 mi NNE 12.7 mph - N/A   Clear
5:55 AM 33.8 °F 25.8 °F 23.7 °F 67% 30.17 in 10.0 mi North 10.4 mph - N/A   Overcast
6:55 AM 32.7 °F 25.7 °F 25.2 °F 74% 30.19 in 10.0 mi NNW 8.1 mph - N/A   Overcast
7:55 AM 34.9 °F 27.7 °F 26.1 °F 70% 30.19 in 10.0 mi North 9.2 mph - N/A   Mostly Cloudy
8:55 AM 38.8 °F 32.1 °F 27.5 °F 64% 30.19 in 10.0 mi North 10.4 mph - N/A   Mostly Cloudy
9:55 AM 41.0 °F 34.3 °F 28.4 °F 61% 30.20 in 10.0 mi North 11.5 mph - N/A   Overcast
10:55 AM 44.4 °F 39.5 °F 29.5 °F 56% 30.20 in 10.0 mi North 9.2 mph - N/A   Mostly Cloudy
11:55 AM 44.2 °F 38.4 °F 29.8 °F 57% 30.16 in 10.0 mi NNE 11.5 mph - N/A   Mostly Cloudy
12:55 PM 46.9 °F - 31.6 °F 55% 30.13 in 10.0 mi NNE 9.2 mph - N/A   Overcast
1:55 PM 47.5 °F - 32.5 °F 56% 30.11 in 10.0 mi ENE 12.7 mph - N/A   Overcast
2:55 PM 47.3 °F - 31.6 °F 55% 30.09 in 10.0 mi ENE 11.5 mph - N/A   Clear
3:55 PM 45.7 °F 41.0 °F 32.2 °F 59% 30.09 in 10.0 mi East 9.2 mph - N/A   Scattered Clouds
4:55 PM 42.8 °F 39.3 °F 33.1 °F 69% 30.09 in 10.0 mi East 5.8 mph - N/A   Clear
5:55 PM 42.8 °F 37.0 °F 32.5 °F 67% 30.06 in 10.0 mi NE 10.4 mph - N/A   Clear
6:55 PM 42.4 °F 35.7 °F 30.9 °F 64% 30.06 in 10.0 mi NE 12.7 mph - N/A   Clear
7:55 PM 41.5 °F 34.6 °F 30.9 °F 66% 30.03 in 10.0 mi NE 12.7 mph - N/A   Clear
8:55 PM 41.5 °F 35.0 °F 28.4 °F 60% 30.07 in 10.0 mi NE 11.5 mph - N/A   Overcast
9:55 PM 41.0 °F 34.3 °F 30.2 °F 65% 30.04 in 10.0 mi NNE 11.5 mph - N/A   Overcast
10:55 PM 41.2 °F 34.5 °F 30.4 °F 65% 30.01 in 10.0 mi North 11.5 mph - N/A   Overcast
11:55 PM 41.9 °F 35.0 °F 32.0 °F 68% 29.99 in 10.0 mi North 12.7 mph - N/A   Overcast